Time,TemperatureF,DewpointF,PressureIn,WindDirection,WindDirectionDegrees,WindSpeedMPH,WindSpeedGustMPH,Humidity,HourlyPrecipIn,Conditions,Clouds,dailyrainin,SolarRadiationWatts/m^2,SoftwareType,DateUTC
2013-03-21 00:03:00,12.0,1.0,-100.00,NNW,330,2.0,4.0,61,0.00,,,0.00,0.000000,,2013-03-21 05:03:00,
2013-03-21 00:33:00,11.0,-1.0,-100.00,North,356,3.0,6.0,57,0.00,,,0.00,0.000000,,2013-03-21 05:33:00,
2013-03-21 00:44:00,11.0,-1.0,-100.00,North,356,3.0,6.0,57,0.00,,,0.00,0.000000,,2013-03-21 05:44:00,
2013-03-21 00:52:00,11.0,-1.0,-100.00,North,356,3.0,6.0,57,0.00,,,0.00,0.000000,,2013-03-21 05:52:00,
2013-03-21 01:03:00,11.0,-1.0,-100.00,North,356,3.0,6.0,57,0.00,,,0.00,0.000000,,2013-03-21 06:03:00,
2013-03-21 01:32:00,4.0,-4.0,-100.00,NW,309,1.0,4.0,69,0.00,,,0.00,0.000000,,2013-03-21 06:32:00,
2013-03-21 01:42:00,4.0,-4.0,-100.00,NW,309,1.0,4.0,69,0.00,,,0.00,0.000000,,2013-03-21 06:42:00,
2013-03-21 01:52:00,4.0,-4.0,-100.00,NW,309,1.0,4.0,69,0.00,,,0.00,0.000000,,2013-03-21 06:52:00,
2013-03-21 02:02:00,4.0,-4.0,-100.00,NW,309,1.0,4.0,69,0.00,,,0.00,0.000000,,2013-03-21 07:02:00,
2013-03-21 02:32:00,1.0,-6.0,-100.00,WNW,286,2.0,4.0,71,0.00,,,0.00,0.000000,,2013-03-21 07:32:00,
2013-03-21 02:43:00,1.0,-6.0,-100.00,WNW,286,2.0,4.0,71,0.00,,,0.00,0.000000,,2013-03-21 07:43:00,
2013-03-21 02:52:00,1.0,-6.0,-100.00,WNW,286,2.0,4.0,71,0.00,,,0.00,0.000000,,2013-03-21 07:52:00,
2013-03-21 03:02:00,1.0,-6.0,-100.00,WNW,286,2.0,4.0,71,0.00,,,0.00,0.000000,,2013-03-21 08:02:00,
2013-03-21 03:33:00,-2.0,-8.0,-100.00,WNW,286,1.0,3.0,75,0.00,,,0.00,0.000000,,2013-03-21 08:33:00,
2013-03-21 03:42:00,-2.0,-8.0,-100.00,WNW,286,1.0,3.0,75,0.00,,,0.00,0.000000,,2013-03-21 08:42:00,
2013-03-21 03:52:00,-2.0,-8.0,-100.00,WNW,286,1.0,3.0,75,0.00,,,0.00,0.000000,,2013-03-21 08:52:00,
2013-03-21 04:02:00,-2.0,-8.0,-100.00,WNW,286,1.0,3.0,75,0.00,,,0.00,0.000000,,2013-03-21 09:02:00,
2013-03-21 04:33:00,-4.0,-9.0,-100.00,WNW,293,2.0,5.0,77,0.00,,,0.00,0.000000,,2013-03-21 09:33:00,
2013-03-21 04:43:00,-4.0,-9.0,-100.00,WNW,293,2.0,5.0,77,0.00,,,0.00,0.000000,,2013-03-21 09:43:00,
2013-03-21 04:53:00,-4.0,-9.0,-100.00,WNW,293,2.0,5.0,77,0.00,,,0.00,0.000000,,2013-03-21 09:53:00,
2013-03-21 05:03:00,-4.0,-9.0,-100.00,WNW,293,2.0,5.0,77,0.00,,,0.00,0.000000,,2013-03-21 10:03:00,
2013-03-21 05:34:00,-5.0,-11.0,-100.00,West,262,2.0,4.0,76,0.00,,,0.00,0.000000,,2013-03-21 10:34:00,
2013-03-21 05:43:00,-5.0,-11.0,-100.00,West,262,2.0,4.0,76,0.00,,,0.00,0.000000,,2013-03-21 10:43:00,
2013-03-21 05:53:00,-5.0,-11.0,-100.00,West,262,2.0,4.0,76,0.00,,,0.00,0.000000,,2013-03-21 10:53:00,
2013-03-21 06:03:00,-5.0,-11.0,-100.00,West,262,2.0,4.0,76,0.00,,,0.00,0.000000,,2013-03-21 11:03:00,
2013-03-21 06:33:00,-4.0,-9.0,-100.00,WSW,247,2.0,5.0,77,0.00,,,0.00,0.000000,,2013-03-21 11:33:00,
2013-03-21 06:43:00,-4.0,-9.0,-100.00,WSW,247,2.0,5.0,77,0.00,,,0.00,0.000000,,2013-03-21 11:43:00,
2013-03-21 06:53:00,-4.0,-9.0,-100.00,WSW,247,2.0,5.0,77,0.00,,,0.00,0.000000,,2013-03-21 11:53:00,
2013-03-21 07:02:00,-4.0,-9.0,-100.00,WSW,247,2.0,5.0,77,0.00,,,0.00,0.000000,,2013-03-21 12:02:00,
2013-03-21 07:33:00,-9.0,-15.0,-100.00,SSW,193,1.0,4.0,75,0.00,,,0.00,0.000000,,2013-03-21 12:33:00,
2013-03-21 07:43:00,-9.0,-15.0,-100.00,SSW,193,1.0,4.0,75,0.00,,,0.00,0.000000,,2013-03-21 12:43:00,
2013-03-21 07:53:00,-9.0,-15.0,-100.00,SSW,193,1.0,4.0,75,0.00,,,0.00,0.000000,,2013-03-21 12:53:00,
2013-03-21 08:02:00,-9.0,-15.0,-100.00,SSW,193,1.0,4.0,75,0.00,,,0.00,0.000000,,2013-03-21 13:02:00,
2013-03-21 08:33:00,-7.0,-14.0,-100.00,SSE,168,1.0,3.0,70,0.00,,,0.00,24.000000,,2013-03-21 13:33:00,
2013-03-21 08:42:00,-7.0,-14.0,-100.00,SSE,168,1.0,3.0,70,0.00,,,0.00,24.000000,,2013-03-21 13:42:00,
2013-03-21 08:52:00,-7.0,-14.0,-100.00,SSE,168,1.0,3.0,70,0.00,,,0.00,24.000000,,2013-03-21 13:52:00,
2013-03-21 09:02:00,-7.0,-14.0,-100.00,SSE,168,1.0,3.0,70,0.00,,,0.00,24.000000,,2013-03-21 14:02:00,
2013-03-21 09:32:00,11.0,0.0,-100.00,NW,323,3.0,5.0,60,0.00,,,0.00,181.000000,,2013-03-21 14:32:00,
2013-03-21 09:43:00,11.0,0.0,-100.00,NW,323,3.0,5.0,60,0.00,,,0.00,181.000000,,2013-03-21 14:43:00,
2013-03-21 09:52:00,11.0,0.0,-100.00,NW,323,3.0,5.0,60,0.00,,,0.00,181.000000,,2013-03-21 14:52:00,
2013-03-21 10:03:00,11.0,0.0,-100.00,NW,323,3.0,5.0,60,0.00,,,0.00,181.000000,,2013-03-21 15:03:00,
2013-03-21 10:33:00,18.0,3.0,-100.00,NW,310,4.0,6.0,50,0.00,,,0.00,350.000000,,2013-03-21 15:33:00,
2013-03-21 10:43:00,18.0,3.0,-100.00,NW,310,4.0,6.0,50,0.00,,,0.00,350.000000,,2013-03-21 15:43:00,
2013-03-21 10:53:00,18.0,3.0,-100.00,NW,310,4.0,6.0,50,0.00,,,0.00,350.000000,,2013-03-21 15:53:00,
2013-03-21 11:03:00,18.0,3.0,-100.00,NW,310,4.0,6.0,50,0.00,,,0.00,350.000000,,2013-03-21 16:03:00,
2013-03-21 11:33:00,22.0,4.0,-100.00,NW,323,5.0,10.0,45,0.00,,,0.00,524.000000,,2013-03-21 16:33:00,
2013-03-21 11:42:00,22.0,4.0,-100.00,NW,323,5.0,10.0,45,0.00,,,0.00,524.000000,,2013-03-21 16:42:00,
2013-03-21 11:53:00,22.0,4.0,-100.00,NW,323,5.0,10.0,45,0.00,,,0.00,524.000000,,2013-03-21 16:53:00,
2013-03-21 12:02:00,22.0,4.0,-100.00,NW,323,5.0,10.0,45,0.00,,,0.00,524.000000,,2013-03-21 17:02:00,
2013-03-21 12:33:00,24.0,5.0,-100.00,NNW,341,7.0,14.0,44,0.00,,,0.00,640.000000,,2013-03-21 17:33:00,
2013-03-21 12:43:00,24.0,5.0,-100.00,NNW,341,7.0,14.0,44,0.00,,,0.00,640.000000,,2013-03-21 17:43:00,
2013-03-21 12:53:00,24.0,5.0,-100.00,NNW,341,7.0,14.0,44,0.00,,,0.00,640.000000,,2013-03-21 17:53:00,
2013-03-21 13:02:00,24.0,5.0,-100.00,NNW,341,7.0,14.0,44,0.00,,,0.00,640.000000,,2013-03-21 18:02:00,
2013-03-21 13:32:00,26.0,6.0,-100.00,NW,308,7.0,12.0,42,0.00,,,0.00,721.000000,,2013-03-21 18:32:00,
2013-03-21 13:43:00,26.0,6.0,-100.00,NW,308,7.0,12.0,42,0.00,,,0.00,721.000000,,2013-03-21 18:43:00,
2013-03-21 13:52:00,26.0,6.0,-100.00,NW,308,7.0,12.0,42,0.00,,,0.00,721.000000,,2013-03-21 18:52:00,
2013-03-21 14:02:00,26.0,6.0,-100.00,NW,308,7.0,12.0,42,0.00,,,0.00,721.000000,,2013-03-21 19:02:00,
2013-03-21 14:32:00,29.0,7.0,-100.00,WNW,300,6.0,11.0,38,0.00,,,0.00,745.000000,,2013-03-21 19:32:00,
2013-03-21 14:43:00,29.0,7.0,-100.00,WNW,300,6.0,11.0,38,0.00,,,0.00,745.000000,,2013-03-21 19:43:00,
2013-03-21 14:53:00,29.0,7.0,-100.00,WNW,300,6.0,11.0,38,0.00,,,0.00,745.000000,,2013-03-21 19:53:00,
2013-03-21 15:02:00,29.0,7.0,-100.00,WNW,300,6.0,11.0,38,0.00,,,0.00,745.000000,,2013-03-21 20:02:00,
2013-03-21 15:33:00,31.0,7.0,-100.00,NW,305,5.0,11.0,36,0.00,,,0.00,708.000000,,2013-03-21 20:33:00,
2013-03-21 15:42:00,31.0,7.0,-100.00,NW,305,5.0,11.0,36,0.00,,,0.00,708.000000,,2013-03-21 20:42:00,
2013-03-21 15:53:00,31.0,7.0,-100.00,NW,305,5.0,11.0,36,0.00,,,0.00,708.000000,,2013-03-21 20:53:00,
2013-03-21 16:02:00,31.0,7.0,-100.00,NW,305,5.0,11.0,36,0.00,,,0.00,708.000000,,2013-03-21 21:02:00,
2013-03-21 16:33:00,31.0,7.0,-100.00,NW,313,4.0,12.0,36,0.00,,,0.00,621.000000,,2013-03-21 21:33:00,
2013-03-21 16:43:00,31.0,7.0,-100.00,NW,313,4.0,12.0,36,0.00,,,0.00,621.000000,,2013-03-21 21:43:00,
2013-03-21 16:53:00,31.0,7.0,-100.00,NW,313,4.0,12.0,36,0.00,,,0.00,621.000000,,2013-03-21 21:53:00,
2013-03-21 17:03:00,31.0,7.0,-100.00,NW,313,4.0,12.0,36,0.00,,,0.00,621.000000,,2013-03-21 22:03:00,
2013-03-21 17:34:00,30.0,7.0,-100.00,West,270,6.0,11.0,37,0.00,,,0.00,486.000000,,2013-03-21 22:34:00,
2013-03-21 17:43:00,30.0,7.0,-100.00,West,270,6.0,11.0,37,0.00,,,0.00,486.000000,,2013-03-21 22:43:00,
2013-03-21 17:53:00,30.0,7.0,-100.00,West,270,6.0,11.0,37,0.00,,,0.00,486.000000,,2013-03-21 22:53:00,
2013-03-21 18:02:00,30.0,7.0,-100.00,West,270,6.0,11.0,37,0.00,,,0.00,486.000000,,2013-03-21 23:02:00,
2013-03-21 18:33:00,29.0,5.0,-100.00,WNW,287,5.0,9.0,36,0.00,,,0.00,316.000000,,2013-03-21 23:33:00,
2013-03-21 18:43:00,29.0,5.0,-100.00,WNW,287,5.0,9.0,36,0.00,,,0.00,316.000000,,2013-03-21 23:43:00,
2013-03-21 18:53:00,29.0,5.0,-100.00,WNW,287,5.0,9.0,36,0.00,,,0.00,316.000000,,2013-03-21 23:53:00,
2013-03-21 19:03:00,29.0,5.0,-100.00,WNW,287,5.0,9.0,36,0.00,,,0.00,316.000000,,2013-03-22 00:03:00,
2013-03-21 19:32:00,26.0,5.0,-100.00,West,263,3.0,9.0,40,0.00,,,0.00,115.000000,,2013-03-22 00:32:00,
2013-03-21 19:42:00,26.0,5.0,-100.00,West,263,3.0,9.0,40,0.00,,,0.00,115.000000,,2013-03-22 00:42:00,
2013-03-21 19:52:00,26.0,5.0,-100.00,West,263,3.0,9.0,40,0.00,,,0.00,115.000000,,2013-03-22 00:52:00,
2013-03-21 20:02:00,26.0,5.0,-100.00,West,263,3.0,9.0,40,0.00,,,0.00,115.000000,,2013-03-22 01:02:00,
2013-03-21 20:33:00,18.0,1.0,-100.00,SSE,163,1.0,6.0,47,0.00,,,0.00,4.000000,,2013-03-22 01:33:00,
2013-03-21 20:43:00,18.0,1.0,-100.00,SSE,163,1.0,6.0,47,0.00,,,0.00,4.000000,,2013-03-22 01:43:00,
2013-03-21 20:53:00,18.0,1.0,-100.00,SSE,163,1.0,6.0,47,0.00,,,0.00,4.000000,,2013-03-22 01:53:00,
2013-03-21 21:02:00,18.0,1.0,-100.00,SSE,163,1.0,6.0,47,0.00,,,0.00,4.000000,,2013-03-22 02:02:00,
2013-03-21 21:32:00,11.0,2.0,-100.00,WSW,238,1.0,3.0,65,0.00,,,0.00,0.000000,,2013-03-22 02:32:00,
2013-03-21 21:43:00,11.0,2.0,-100.00,WSW,238,1.0,3.0,65,0.00,,,0.00,0.000000,,2013-03-22 02:43:00,
2013-03-21 21:53:00,11.0,2.0,-100.00,WSW,238,1.0,3.0,65,0.00,,,0.00,0.000000,,2013-03-22 02:53:00,
2013-03-21 22:02:00,11.0,2.0,-100.00,WSW,238,1.0,3.0,65,0.00,,,0.00,0.000000,,2013-03-22 03:02:00,
2013-03-21 22:33:00,15.0,6.0,-100.00,WSW,257,3.0,5.0,66,0.00,,,0.00,0.000000,,2013-03-22 03:33:00,
2013-03-21 22:43:00,15.0,6.0,-100.00,WSW,257,3.0,5.0,66,0.00,,,0.00,0.000000,,2013-03-22 03:43:00,
2013-03-21 22:53:00,15.0,6.0,-100.00,WSW,257,3.0,5.0,66,0.00,,,0.00,0.000000,,2013-03-22 03:53:00,
2013-03-21 23:03:00,15.0,6.0,-100.00,WSW,257,3.0,5.0,66,0.00,,,0.00,0.000000,,2013-03-22 04:03:00,
2013-03-21 23:32:00,14.0,4.0,-100.00,WSW,252,3.0,6.0,63,0.00,,,0.00,0.000000,,2013-03-22 04:32:00,
2013-03-21 23:43:00,14.0,4.0,-100.00,WSW,252,3.0,6.0,63,0.00,,,0.00,0.000000,,2013-03-22 04:43:00,
2013-03-21 23:52:00,14.0,4.0,-100.00,WSW,252,3.0,6.0,63,0.00,,,0.00,0.000000,,2013-03-22 04:52:00,